This is the latest recevied weather packets stored in our database for station/object N9OJR. If no packets are shown the sender has not sent any weather packets the latest 10 day(s).
| Time | Temp. | Humidity | Pressure | Rain* | Wind** | Luminosity | Snow |
|---|---|---|---|---|---|---|---|
| 1777053998 | 27.22° C | 53% | 1004.9 hPa | 0 mm | - | 780 W/m² | - |
| 1777053693 | 26.67° C | 58% | 1005 hPa | 0 mm | - | 809 W/m² | - |
| 1777053392 | 26.11° C | 56% | 1004.9 hPa | 0 mm | - | 782 W/m² | - |
| 1777053082 | 26.11° C | 55% | 1005.1 hPa | 0 mm | - | 660 W/m² | - |
| 1777052778 | 25.56° C | 55% | 1005 hPa | 0 mm | - | 640 W/m² | - |
| 1777052478 | 26.11° C | 54% | 1005 hPa | 0 mm | - | 252 W/m² | - |
| 1777052175 | 26.11° C | 59% | 1005.4 hPa | 0 mm | - | 676 W/m² | - |
| 1777051874 | 25.56° C | 56% | 1005.1 hPa | 0 mm | - | 753 W/m² | - |
| 1777051567 | 26.11° C | 55% | 1005.1 hPa | 0 mm | - | 732 W/m² | - |
| 1777051264 | 25° C | 59% | 1005.1 hPa | 0 mm | - | 337 W/m² | - |
| 1777050958 | 25.56° C | 57% | 1005.2 hPa | 0 mm | - | 227 W/m² | - |
| 1777050654 | 24.44° C | 61% | 1005.4 hPa | 0 mm | - | 772 W/m² | - |
| 1777050349 | 25° C | 58% | 1005.4 hPa | 0 mm | - | 179 W/m² | - |
| 1777050044 | 25.56° C | 55% | 1005.5 hPa | 0 mm | - | 246 W/m² | - |
| 1777049738 | 25.56° C | 58% | 1005.6 hPa | 0 mm | - | 329 W/m² | - |
| 1777049436 | 25.56° C | 57% | 1005.8 hPa | 0 mm | - | 294 W/m² | - |
| 1777049133 | 25.56° C | 60% | 1005.8 hPa | 0 mm | - | 790 W/m² | - |
| 1777048829 | 26.67° C | 58% | 1006 hPa | 0 mm | - | 313 W/m² | - |
| 1777048524 | 26.11° C | 57% | 1006 hPa | 0 mm | - | 748 W/m² | - |
| 1777048223 | 25.56° C | 63% | 1006.1 hPa | 0 mm | - | 757 W/m² | - |
| 1777047919 | 25.56° C | 64% | 1006.1 hPa | 0 mm | - | 291 W/m² | - |
| 1777047615 | 25° C | 61% | 1006 hPa | 0 mm | - | 508 W/m² | - |
| 1777047311 | 25.56° C | 62% | 1006 hPa | 0 mm | - | 704 W/m² | - |
| 1777047007 | 25.56° C | 59% | 1005.9 hPa | 0 mm | - | 715 W/m² | - |
| 1777046703 | 25.56° C | 59% | 1006.1 hPa | 0 mm | - | 729 W/m² | - |
* Rain latest hour (hover to see other rain measurements)
** Current wind speed in m/s (hover to see current wind gust speed)